Regional Weather Roundup
Issued by NWS

Home | Current Version | Previous Version | Text Only | Print | Product List | Glossary Off
Versions: 1 2 3 4 5 6 7 8 9 10 11 12 13 14 15 16 17 18 19 20 21 22 23 24 25 26 27 28 29 30 31 32 33 34 35 36 37 38 39 40 41 42 43 44 45 46 47 48 49 50

637
ASUS44 KLIX 200510
RWRLA
LOUISIANA WEATHER ROUNDUP
NATIONAL WEATHER SERVICE NEW ORLEANS LA
1200 AM CDT SUN APR 20 2014

NOTE: "FAIR" INDICATES FEW OR NO CLOUDS BELOW 12,000 FEET WITH NO
      SIGNIFICANT WEATHER AND/OR OBSTRUCTIONS TO VISIBILITY.
      SKY/WX - SKY CONDITION AND SIGNIFICANT WEATHER.
      TMP - AIR TEMPERATURE.    DP   - DEWPOINT TEMPERATURE.
      RH  - RELATIVE HUMIDITY.  PRES - PRESSURE.
      HX  - HEAT INDEX.         WCI  - WIND CHILL INDEX.

*  THESE STATIONS ARE NOT NWS OR FAA STATIONS AND ARE NOT UNDER
   NWS QUALITY CONTROL.

LAZ040-048-061>063-065-066-069-200600-
SOUTHEAST LOUISIANA

CITY           SKY/WX    TMP DP  RH WIND       PRES   REMARKS
N.O. AUDUBON     N/A     64  56  76 MISG        N/A
N.O. INTL ARPT CLEAR     66  57  72 CALM      30.11F
N.O. LAKEFRONT CLEAR     68  61  78 N7        30.11F
N.O. DOWNTOWN* FAIR      72  52  49 NE3       30.12F
SLIDELL        CLEAR     58  55  90 N3        30.11F
BATON ROUGE    CLEAR     63  53  70 N3        30.12F
BOOTHVILLE     CLEAR     64  61  90 NW7       30.12S
BELLE CHASSE   CLEAR     58  55  90 CALM      30.11F
BOGALUSA*        N/A     57  53  88 CALM      30.14F
GALLIANO*      CLEAR     61  58  92 CALM      30.12S
NEW ROADS*     FAIR      61  54  76 N3        30.13S
GONZALES*      FAIR      59  57  92 CALM      30.11F
HAMMOND*       CLEAR     57  54  88 CALM      30.13F
HOUMA*           N/A     61  56  83 CALM      30.12S
PORT FOURCHON* CLEAR     68  63  83 W6        30.13F

$$

LAZ041-044-053-054-200600-
SOUTHWEST LOUISIANA

CITY           SKY/WX    TMP DP  RH WIND       PRES   REMARKS
LAKE CHARLES   CLEAR     59  57  93 CALM      30.12F
LAFAYETTE      PTCLDY    61  56  83 CALM      30.13S
PATTERSON      CLEAR     61  57  88 CALM      30.15S
SALT POINT       N/A     67  63  87 CALM      30.12S
NEW IBERIA     PTCLDY    62  57  83 CALM      30.13S
CHENAULT AIRPK CLEAR     60  58  91 CALM      30.13S

$$

LAZ027-028-200600-
CENTRAL LOUISIANA

CITY           SKY/WX    TMP DP  RH WIND       PRES   REMARKS
FORT POLK      CLEAR     59  54  83 CALM      30.12F
ALEXANDRIA INT PTCLDY    60  57  89 CALM      30.12F
ALEXANDRIA     PTCLDY    57  53  86 CALM      30.14S

$$

LAZ001-002-200600-
NORTHWEST LOUISIANA

CITY           SKY/WX    TMP DP  RH WIND       PRES   REMARKS
SHREVEPORT     PTCLDY    60  54  80 CALM      30.12S
BARKSDALE AFB  PTCLDY    58  55  88 CALM      30.13S
DTN SHREVEPORT PTCLDY    57  54  89 CALM      30.13S

$$

LAZ014-016-200600-
NORTHEAST LOUISIANA

CITY           SKY/WX    TMP DP  RH WIND       PRES   REMARKS
MONROE         PTCLDY    59  55  87 CALM      30.15S
TALLULAH       PTCLDY    61  58  90 CALM      30.14F

$$




USA.gov is the U.S. government's official web portal to all federal, state and local government web resources and services.